Regional Weather Roundup
Issued by NWS

Home | Current Version | Previous Version | Text Only | Print | Product List | Glossary Off
Versions: 1 2 3 4 5 6 7 8 9 10 11 12 13 14 15 16 17 18 19 20 21 22 23 24 25 26 27 28 29 30 31 32 33 34 35 36 37 38 39 40 41 42 43 44 45 46 47 48 49 50

000
ASUS45 KSLC 281710
RWRUT

UTAH REGIONAL WEATHER ROUNDUP
NATIONAL WEATHER SERVICE SALT LAKE CITY UT
1100 AM MDT THU AUG 28 2014

UTZ001>011-023>025-281800-

NORTHERN UTAH

CITY           SKY/WX    TMP DP  RH WIND       PRES   REMARKS
HILL AFB       SUNNY     70  51  51 SE5       30.26S
LOGAN          SUNNY     68  55  63 CALM      30.24F
OGDEN          SUNNY     72  48  42 S3        30.24S
PROVO AIRPORT  NOT AVBL
SALT LAKE CITY MOSUNNY   73  51  46 S9        30.23S
VERNAL         MOSUNNY   61  53  75 MISG      30.29R
WENDOVER       SUNNY     72  48  43 SE5       30.23S
HEBER CITY     CLOUDY    54  50  87 CALM      30.34S
WEST JORDAN    SUNNY     72  55  56 S12       30.27R

$$

UTZ012>022-026-027-281800-

SOUTHERN UTAH

CITY           SKY/WX    TMP DP  RH WIND       PRES   REMARKS
BRYCE CANYON   SUNNY     62  42  47 CALM      30.43R
CEDAR CITY     SUNNY     71  44  37 VRB3      30.30S
MILFORD        SUNNY     73  44  35 S9        30.27S
MOAB/CYNLANDS  SUNNY     71  48  43 CALM      30.22F
PRICE          SUNNY     66  47  50 VRB3      30.29S
ST GEORGE      SUNNY     75  48  38 CALM      30.17S

$$

REGIONAL REPORTS     COLORADO/ARIZONA

CITY           SKY/WX    TMP DP  RH WIND       PRES   REMARKS
CRAIG, CO      PTSUNNY   58  51  78 W6        30.32R
GRAND JUNCTION MOSUNNY   65  53  65 SE6       30.27R
RIFLE          CLOUDY    57  52  83 NW5       30.30S
MONTROSE       CLOUDY    60  51  72 SE12      30.34R
CORTEZ         SUNNY     69  47  45 N9        30.28F
PAGE, AZ       SUNNY     76  45  33 W5        30.23S
GRAND CANYON   SUNNY     72  39  30 NW6G17    30.37S
KINGMAN        SUNNY     86  41  20 CALM      30.16R
FLAGSTAFF      SUNNY     68  42  38 VRB3      30.38S

$$

REGIONAL REPORTS    NEVADA/IDAHO/WYOMING

CITY           SKY/WX    TMP DP  RH WIND       PRES   REMARKS
LAS VEGAS, NV  SUNNY     89  38  16 SE3       30.05R
ELY            SUNNY     71  38  29 VRB3      30.34F
ELKO           SUNNY     70  37  29 CALM      30.27F
POCATELLO, ID  SUNNY     76  46  34 VRB3      30.22S
BURLEY         SUNNY     75  54  47 SE5       30.17F
EVANSTON, WY   MOSUNNY   61  48  62 SW8       30.37S
ROCK SPRINGS   MOSUNNY   60  49  66 W12       30.33S

$$



USA.gov is the U.S. government's official web portal to all federal, state and local government web resources and services.